(205852) = 2002 EY61

Discovered at Socorro on 2002-03-13 by LINEAR.

Orbit

Orbit type: Main Belt

Note: WebGL enabled browser required.

epoch2024-03-31.0
epoch JD2460400.5
perihelion date2024-10-07.26350
perihelion JD2460590.76350
argument of perihelion (°)253.12847
ascending node (°)308.48389
inclination (°)1.62915
eccentricity0.0872106
perihelion distance (AU)2.1885691
Tisserand w.r.t. Jupiter3.5
ΔV w.r.t. Earth (km/sec)9.2
semimajor axis (AU)2.3976714
mean anomaly (°)309.49030
mean daily motion (°/day)0.26547240
aphelion distance (AU)2.607
period (years)3.71
P-vector [x]-0.92939428
P-vector [y]-0.32688866
P-vector [z]-0.17137702
Q-vector [x]0.36841690
Q-vector [y]-0.84963127
Q-vector [z]-0.37735355
absolute magnitude17.19
phase slope0.15
uncertainty0
referenceMPEC 2024-C128
observations used354
oppositions16
arc length (days)8473
first opposition used2000
last opposition used2024
residual rms (arc-secs)0.67
perturbers coarse indicatorM-v
perturbers precise indicator003Ek
first observation date used2000-11-30.0
last observation date used2024-02-11.0
computer nameMPCLINUX
JD of orbit computation2456877.740379
perihelion JD uncertainty (days)1.0200E-04
argument of perihelion uncertainty (°)1.0330E-04
ascending node uncertainty (°)9.9515E-05
inclination uncertainty (°)4.7748E-06
eccentricity uncertainty 3.0389E-08
perihelion distance uncertainty (AU)6.9722E-08
Minimum Orbit Intersection Distances (in AU)
for orbit epoch: 2460400.5, reference: E2024-GF4
Mercury1.75139
Venus1.4699
Earth1.18616
Mars0.55661
Jupiter2.35193
Saturn6.54498
Uranus16.2027
Neptune27.2239

Observations

361 total observations over interval: 2000 11 30.289690 – 2024 02 11.514940
These data are available for download (format description).

Date (UT) J2000 RA J2000 Dec Magn Location Ref
2000 11 30.289690 01 56 59.548 +14 33 33.81 21.29 V 645 – Apache Point-Sloan Digital Sky Survey MPS 228939
2000 11 30.293162 01 56 59.434 +14 33 32.91 22.26   645 – Apache Point-Sloan Digital Sky Survey MPS 228939
2002 02 09.39529 11 34 06.95 +01 17 50.7 20.8 V 291 – LPL/Spacewatch II MPS 54876
2002 02 09.41536 11 34 06.28 +01 17 52.2 20.5 V 291 – LPL/Spacewatch II MPS 54876
2002 02 09.43554 11 34 05.70 +01 17 54.8 20.8 V 291 – LPL/Spacewatch II MPS 54876
2002 02 11.39720 11 33 06.52 +01 21 44.3 19.9   704 – Lincoln Laboratory ETS, New Mexico MPS 54876
2002 02 11.41153 11 33 05.87 +01 21 47.2 20.7   704 – Lincoln Laboratory ETS, New Mexico MPS 54876
2002 02 11.42597 11 33 05.50 +01 21 48.3 19.8   704 – Lincoln Laboratory ETS, New Mexico MPS 54876
2002 02 11.44027 11 33 04.99 +01 21 51.1 19.5   704 – Lincoln Laboratory ETS, New Mexico MPS 54876
2002 02 20.29240 11 27 21.33 +01 47 38.7 20.6 V 291 – LPL/Spacewatch II MPS 54876
2002 02 20.31224 11 27 20.36 +01 47 42.8 20.6 V 291 – LPL/Spacewatch II MPS 54876
2002 02 20.33199 11 27 19.43 +01 47 47.0 20.6 V 291 – LPL/Spacewatch II MPS 54876
2002 03 12.26807 11 09 36.04 +03 20 29.2 19.0 R 699 – Lowell Observatory-LONEOS MPS 54876
2002 03 12.28687 11 09 34.97 +03 20 34.1   699 – Lowell Observatory-LONEOS MPS 54876
2002 03 12.30569 11 09 33.79 +03 20 40.7   699 – Lowell Observatory-LONEOS MPS 54876
2002 03 12.32457 11 09 32.79 +03 20 48.0   699 – Lowell Observatory-LONEOS MPS 54876
2002 03 13.27664 11 08 39.20 +03 25 41.3 19.9   704 – Lincoln Laboratory ETS, New Mexico MPS 55783
2002 03 13.29049 11 08 38.39 +03 25 45.4 19.8   704 – Lincoln Laboratory ETS, New Mexico MPS 55783
2002 03 13.30437 11 08 37.63 +03 25 50.9 20.4   704 – Lincoln Laboratory ETS, New Mexico MPS 55783
2002 03 13.31830 11 08 36.77 +03 25 53.5 19.8   704 – Lincoln Laboratory ETS, New Mexico MPS 55783
2002 03 15.25927 11 06 48.76 +03 35 54.8 19.8   704 – Lincoln Laboratory ETS, New Mexico MPS 55783
2002 03 15.27270 11 06 48.03 +03 35 58.2 20.0   704 – Lincoln Laboratory ETS, New Mexico MPS 55783
2002 03 15.28617 11 06 47.26 +03 36 01.5 20.0   704 – Lincoln Laboratory ETS, New Mexico MPS 55783
2002 03 15.30439 11 06 46.16 +03 36 07.2 19.7   704 – Lincoln Laboratory ETS, New Mexico MPS 55783
2002 03 21.27137 11 01 28.96 +04 05 51.9 20.1 V 291 – LPL/Spacewatch II MPS 54876
2002 03 21.29543 11 01 27.68 +04 05 59.0 20.1 V 291 – LPL/Spacewatch II MPS 54876
2002 03 21.31681 11 01 26.54 +04 06 05.0 20.1 V 291 – LPL/Spacewatch II MPS 54876
2002 04 12.16267 10 48 32.32 +05 22 10.8 18.9   704 – Lincoln Laboratory ETS, New Mexico MPS 54876
2002 04 12.17658 10 48 32.06 +05 22 13.1 19.3   704 – Lincoln Laboratory ETS, New Mexico MPS 54876
2002 04 12.19050 10 48 31.82 +05 22 14.7 19.5   704 – Lincoln Laboratory ETS, New Mexico MPS 54876
2002 04 12.20442 10 48 31.52 +05 22 16.5 19.8   704 – Lincoln Laboratory ETS, New Mexico MPS 54876
2006 04 30.25091 14 09 26.79 -16 15 55.5 19.2 R 699 – Lowell Observatory-LONEOS MPS 228939
2006 04 30.27826 14 09 24.96 -16 15 48.4   699 – Lowell Observatory-LONEOS MPS 228939
2006 04 30.30568 14 09 23.56 -16 15 39.9   699 – Lowell Observatory-LONEOS MPS 228939
2006 04 30.33311 14 09 21.84 -16 15 33.8   699 – Lowell Observatory-LONEOS MPS 228939
2006 05 04.29735 14 05 43.36 -15 55 59.2 19.7 V G96 – Mt. Lemmon Survey MPS 240640
2006 05 04.30290 14 05 43.04 -15 55 57.2 19.4 V G96 – Mt. Lemmon Survey MPS 240640
2006 05 04.30852 14 05 42.72 -15 55 55.5 19.7 V G96 – Mt. Lemmon Survey MPS 240640
2006 05 04.31414 14 05 42.43 -15 55 54.0 19.4 V G96 – Mt. Lemmon Survey MPS 240640
2007 09 15.27456 23 33 01.90 -00 53 58.1 20.2 V G96 – Mt. Lemmon Survey MPS 228939
2007 09 15.28020 23 33 01.58 -00 53 59.8 20.2 V G96 – Mt. Lemmon Survey MPS 228939
2007 09 15.28578 23 33 01.26 -00 54 01.6 20.4 V G96 – Mt. Lemmon Survey MPS 228939
2007 09 15.29141 23 33 00.93 -00 54 03.2 20.2 V G96 – Mt. Lemmon Survey MPS 228939
2007 10 10.26507 23 12 36.82 -02 59 40.8 20.8 V G96 – Mt. Lemmon Survey MPS 228939
2007 10 10.27237 23 12 36.57 -02 59 42.0 20.9 V G96 – Mt. Lemmon Survey MPS 228939
2007 10 10.27977 23 12 36.25 -02 59 44.2 20.9 V G96 – Mt. Lemmon Survey MPS 228939
2007 10 10.28719 23 12 35.96 -02 59 45.9 21.3 V G96 – Mt. Lemmon Survey MPS 228939
2008 12 04.31764 07 33 30.31 +23 04 03.6 20.6 V G96 – Mt. Lemmon Survey MPS 267416
2008 12 04.32529 07 33 30.16 +23 04 03.6 20.4 V G96 – Mt. Lemmon Survey MPS 267416
2008 12 04.33291 07 33 29.91 +23 04 05.1 20.6 V G96 – Mt. Lemmon Survey MPS 267416
2008 12 04.34056 07 33 29.66 +23 04 05.8 21.1 V G96 – Mt. Lemmon Survey MPS 267416
2008 12 21.29556 07 21 31.33 +23 24 09.2 20.4 V 691 – Steward Observatory, Kitt Peak-Spacewatch MPS 269204
2008 12 21.31369 07 21 30.26 +23 24 10.4 20.4 V 691 – Steward Observatory, Kitt Peak-Spacewatch MPS 269204
2008 12 21.33183 07 21 29.20 +23 24 12.5 20.3 V 691 – Steward Observatory, Kitt Peak-Spacewatch MPS 269204
2008 12 22.24725 07 20 37.13 +23 25 28.2 20.6 V 691 – Steward Observatory, Kitt Peak-Spacewatch MPS 269204
2008 12 22.26284 07 20 36.21 +23 25 29.6 20.4 V 691 – Steward Observatory, Kitt Peak-Spacewatch MPS 269204
2008 12 22.27843 07 20 35.26 +23 25 31.3 20.5 V 691 – Steward Observatory, Kitt Peak-Spacewatch MPS 269204
2008 12 29.23645 07 13 25.96 +23 35 03.2 19.7 V 691 – Steward Observatory, Kitt Peak-Spacewatch MPS 270048
2008 12 29.25457 07 13 24.77 +23 35 04.9 20.1 V 691 – Steward Observatory, Kitt Peak-Spacewatch MPS 270048
2008 12 29.27268 07 13 23.55 +23 35 06.5 20.3 V 691 – Steward Observatory, Kitt Peak-Spacewatch MPS 270048
2008 12 30.07338 07 12 30.90 +23 36 07.5 20 R 461 – University of Szeged, Piszkesteto Stn. (Konkol MPS 270048
2008 12 30.08079 07 12 30.41 +23 36 08.1   461 – University of Szeged, Piszkesteto Stn. (Konkol MPS 270048
2008 12 30.08818 07 12 29.92 +23 36 08.6   461 – University of Szeged, Piszkesteto Stn. (Konkol MPS 270048
2008 12 30.09774 07 12 29.28 +23 36 09.1   461 – University of Szeged, Piszkesteto Stn. (Konkol MPS 270048
2009 01 17.13389 06 52 24.68 +23 52 48.0   691 – Steward Observatory, Kitt Peak-Spacewatch MPS 272295
2009 01 17.15096 06 52 23.56 +23 52 48.8   691 – Steward Observatory, Kitt Peak-Spacewatch MPS 272295
2009 01 17.16483 06 52 22.69 +23 52 49.0   691 – Steward Observatory, Kitt Peak-Spacewatch MPS 272295
2010 06 08.443871 17 35 45.123 -25 29 37.77 19.88 r F51 – Pan-STARRS 1, Haleakala MPS 338791
2010 06 08.446623 17 35 44.942 -25 29 37.55 20.06 r F51 – Pan-STARRS 1, Haleakala MPS 338791
2010 06 08.455562 17 35 44.358 -25 29 37.09 19.80 r F51 – Pan-STARRS 1, Haleakala MPS 338791
2010 06 08.458241 17 35 44.178 -25 29 36.73 19.94 r F51 – Pan-STARRS 1, Haleakala MPS 338791
2011 09 30.25788 01 39 32.72 +12 57 12.0 21.1 V 691 – Steward Observatory, Kitt Peak-Spacewatch MPS 394007
2011 09 30.27567 01 39 31.82 +12 57 08.5 20.6 V 691 – Steward Observatory, Kitt Peak-Spacewatch MPS 394007
2011 09 30.29345 01 39 30.86 +12 57 04.0 21.2 V 691 – Steward Observatory, Kitt Peak-Spacewatch MPS 394007
2011 10 18.30192 01 23 01.53 +11 28 54.6 20.4 V G96 – Mt. Lemmon Survey MPS 396038
2011 10 18.30878 01 23 01.10 +11 28 52.3 20.2 V G96 – Mt. Lemmon Survey MPS 396038
2011 10 18.31567 01 23 00.70 +11 28 49.9 20.1 V G96 – Mt. Lemmon Survey MPS 396038
2011 10 18.32255 01 23 00.31 +11 28 47.5 20.2 V G96 – Mt. Lemmon Survey MPS 396038
2012 12 20.50667 10 13 26.14 +10 59 08.9 20.9 V G96 – Mt. Lemmon Survey MPS 448431
2012 12 20.51196 10 13 26.22 +10 59 08.9 21.2 V G96 – Mt. Lemmon Survey MPS 448431
2012 12 20.51722 10 13 26.29 +10 59 08.0 21.3 V G96 – Mt. Lemmon Survey MPS 448431
2012 12 20.52251 10 13 26.40 +10 59 06.8 20.5 V G96 – Mt. Lemmon Survey MPS 448431
2013 01 09.46650 10 14 32.14 +10 36 37.3 20.5 V 691 – Steward Observatory, Kitt Peak-Spacewatch MPS 450688
2013 01 09.48428 10 14 31.85 +10 36 38.0 20.5 V 691 – Steward Observatory, Kitt Peak-Spacewatch MPS 450688
2013 01 09.50213 10 14 31.52 +10 36 38.4 20.5 V 691 – Steward Observatory, Kitt Peak-Spacewatch MPS 450688
2013 01 17.11068 10 11 42.20 +10 45 12.7 20.9   J43 – Oukaimeden Observatory, Marrakech MPS 452026
2013 01 17.12253 10 11 41.85 +10 45 14.5 20.6   J43 – Oukaimeden Observatory, Marrakech MPS 452026
